Regional Weather Roundup
Issued by NWS

Home | Current Version | Previous Version | Text Only | Print | Product List | Glossary Off
Versions: 1 2 3 4 5 6 7 8 9 10 11 12 13 14 15 16 17 18 19 20 21 22 23 24 25 26 27 28 29 30 31 32 33 34 35 36 37 38 39 40 41 42 43 44 45 46 47 48 49 50

000
ASUS43 KOAX 291410
RWRNE

WEATHER ROUNDUP FOR NEBRASKA
NATIONAL WEATHER SERVICE OMAHA NE
900 AM CDT WED JUL 29 2015

NOTES: SATELLITE DATA IS BEING USED TO AUGMENT CLOUD COVER ABOVE
       12000 FEET.
       "FAIR" INDICATES FEW OR NO CLOUDS BELOW 12,000 FEET WITH NO
       SIGNIFICANT WEATHER AND/OR OBSTRUCTIONS TO VISIBILITY.

  * THESE STATIONS DO NOT REPORT WEATHER SUCH AS RAIN...SNOW OR FOG.

NEZ001>004-019>022-054>056-291500-
NEBRASKA PANHANDLE

CITY           SKY/WX    TMP DP  RH WIND       PRES   REMARKS
SCOTTSBLUFF    SUNNY     60  46  59 CALM      30.34R
ALLIANCE       SUNNY     56  49  77 CALM      30.33R
CHADRON        SUNNY     59  46  62 W5        30.31R
KIMBALL        SUNNY     60  45  57 SE10      30.34R
SIDNEY         MOSUNNY   65  44  46 SE14      30.34S
$$

NEZ057>060-069>072-079>082-291500-
SOUTHWEST NEBRASKA

CITY           SKY/WX    TMP DP  RH WIND       PRES   REMARKS
NORTH PLATTE   PTSUNNY   63  53  70 CALM      30.31R
IMPERIAL       MOSUNNY   63  51  65 E5        30.31R
LEXINGTON      PTSUNNY   62  58  86 CALM      30.31R
MCCOOK         MOSUNNY   65  55  70 E3        30.30R
OGALLALA       MOSUNNY   63  50  62 E7        30.32R
$$

NEZ005>010-023>029-035>040-094-291500-
NORTH CENTRAL NEBRASKA

CITY           SKY/WX    TMP DP  RH WIND       PRES   REMARKS
VALENTINE      SUNNY     67  45  45 W9        30.26R
AINSWORTH      SUNNY     67  50  54 SW10      30.27R
BROKEN BOW     PTSUNNY   63  55  75 CALM      30.29R
O`NEILL        SUNNY     67  56  67 SW7       30.24R
ORD            MOSUNNY   60  56  86 CALM      30.26R
THEDFORD       MOSUNNY   66  51  56 SW7       30.31R
$$

NEZ041-046>049-061>064-073>077-083>087-291500-
SOUTH CENTRAL NEBRASKA

CITY           SKY/WX    TMP DP  RH WIND       PRES   REMARKS
GRAND ISLAND   SUNNY     69  57  65 W5        30.27R
AURORA         SUNNY     68  61  79 CALM      30.25R
HASTINGS       SUNNY     66  59  78 W3        30.27R
HEBRON         PTSUNNY   66  60  80 CALM      30.23R
HOLDREGE       MOSUNNY   64  56  74 CALM      30.30R
KEARNEY *      MOSUNNY   66  55  68 W3        30.29R
YORK           MOSUNNY   68  63  83 CALM      30.23R
$$

NEZ011>018-030>034-042>045-291500-
NORTHEAST NEBRASKA

CITY           SKY/WX    TMP DP  RH WIND       PRES   REMARKS
NORFOLK        SUNNY     68  58  70 W6        30.21R
ALBION         MOSUNNY   65  56  73 CALM      30.24R
BLAIR          MOSUNNY   69  62  77 CALM      30.18R
COLUMBUS *     SUNNY     68  55  64 W3        30.22R
FREMONT        MOSUNNY   68  60  77 NW6       30.19R
TEKAMAH        SUNNY     70  64  81 CALM      30.17R
WAYNE          SUNNY     66  60  80 SW5       30.19S
$$

NEZ050>053-065>068-078-088>093-291500-
SOUTHEAST NEBRASKA

CITY           SKY/WX    TMP DP  RH WIND       PRES   REMARKS
LINCOLN        PTSUNNY   69  61  75 NW3       30.20R
OMAHA EPPLEY   PTSUNNY   69  65  86 N3        30.17R
BEATRICE       PTSUNNY   69  64  82 N6        30.19R
FALLS CITY     CLOUDY    72  71  97 NW6       30.13S
NEBRASKA CITY  CLOUDY    69  62  79 N5        30.17R
PLATTSMOUTH    PTSUNNY   69  65  86 NW5       30.18R
$$

NEZ044-045-051>053-067-291500-
OMAHA AREA

CITY           SKY/WX    TMP DP  RH WIND       PRES   REMARKS
OMAHA EPPLEY   PTSUNNY   69  65  86 N3        30.17R
BLAIR          MOSUNNY   69  62  77 CALM      30.18R
FREMONT        MOSUNNY   68  60  77 NW6       30.19R
MILLARD        PTSUNNY   71  61  71 NW3       30.18R
OFFUTT AFB     PTSUNNY   71  63  76 CALM      30.17R
PLATTSMOUTH    PTSUNNY   69  65  86 NW5       30.18R
WAHOO          FAIR      68  61  79 N3        30.19S
$$


USA.gov is the U.S. government's official web portal to all federal, state and local government web resources and services.